Location: Unspecified
(0.0000°N, 0.0000°E)
Time: 17:02:42
(UTC+00:00)

N. Korean satellite - Pass Details

Date: 13 December 2018
Orbit: 456 x 511 km, 97.2° (Epoch: 12 December)

Event Time Altitude Azimuth Distance (km) Brightness Sun altitude
Rises 05:06:34 0° 42° (NE) 2,564 10.5 -10.9°
Reaches altitude 10° 05:09:24 10° 67° (ENE) 1,697 10.0 -10.3°
Maximum altitude 05:11:27 14° 102° (ESE) 1,450 10.3 -9.8°
Drops below altitude 10° 05:13:30 10° 136° (SE) 1,715 10.6 -9.3°
Sets 05:16:23 0° 160° (SSE) 2,610 11.0 -8.7°
